This is the latest recevied weather packets stored in our database for station/object ES0THZ-13. If no packets are shown the sender has not sent any weather packets the latest 10 day(s).
| Time | Temp. | Humidity | Pressure | Rain* | Wind** | Luminosity | Snow |
|---|---|---|---|---|---|---|---|
| 1777873996 | 8.89° C | 82% | - | - | - | - | - |
| 1777872956 | 8.89° C | 82% | 1001.6 hPa | - | - | - | - |
| 1777871956 | 8.89° C | 82% | - | - | - | - | - |
| 1777870961 | 9.44° C | 82% | 1000 hPa | - | - | - | - |
| 1777869898 | 10.56° C | 80% | 1000.2 hPa | - | - | - | - |
| 1777868746 | 9.44° C | 82% | 1000.9 hPa | - | - | - | - |
| 1777867766 | 8.89° C | 82% | 1001.2 hPa | - | - | - | - |
| 1777866766 | 7.78° C | 82% | 1000.6 hPa | - | - | - | - |
| 1777865721 | 7.22° C | 82% | 1000.8 hPa | - | - | - | - |
| 1777864577 | 6.67° C | 82% | 1001.9 hPa | - | - | - | - |
| 1777863451 | 6.67° C | 82% | 1002.4 hPa | - | - | - | - |
| 1777862436 | 6.11° C | 82% | 1001.2 hPa | - | - | - | - |
| 1777861376 | 6.11° C | 82% | 1002.2 hPa | - | - | - | - |
| 1777860311 | 6.67° C | 82% | 1000.8 hPa | - | - | - | - |
| 1777859171 | 6.67° C | 82% | 1002 hPa | - | - | - | - |
| 1777858056 | 7.22° C | 82% | 1002.1 hPa | - | - | - | - |
| 1777856986 | 7.22° C | 82% | 1003.5 hPa | - | - | - | - |
| 1777855911 | 7.22° C | 81% | 1001.6 hPa | - | - | - | - |
| 1777854836 | 6.67° C | 81% | 1001.8 hPa | - | - | - | - |
| 1777853716 | 6.67° C | 81% | 1002.1 hPa | - | - | - | - |
| 1777852581 | 6.67° C | 81% | 1002.2 hPa | - | - | - | - |
| 1777851551 | 6.67° C | 80% | 1002.9 hPa | - | - | - | - |
| 1777850461 | 6.67° C | 80% | 1003.7 hPa | - | - | - | - |
| 1777849376 | 6.67° C | 80% | 1002.5 hPa | - | - | - | - |
| 1777848241 | 6.67° C | 80% | 1002.5 hPa | - | - | - | - |
* Rain since midnight (hover to see other rain measurements)
** Current wind speed in m/s (hover to see current wind gust speed)